Regional Weather Roundup
Issued by NWS

Home | Current Version | Previous Version | Graphics & Text | Print | Product List | Glossary On
Versions: 1 2 3 4 5 6 7 8 9 10 11 12 13 14 15 16 17 18 19 20 21 22 23 24 25 26 27 28 29 30 31 32 33 34 35 36 37 38 39 40 41 42 43 44 45 46 47 48 49 50
000
ASUS44 KMEG 260410
RWRTN
TENNESSEE HOURLY STATE WEATHER ROUNDUP
NATIONAL WEATHER SERVICE MEMPHIS TN
1100 PM CDT MON MAY 25 2015

TNZ002-004-019-021-049-052-054-088>092-260500-
WEST TENNESSEE

CITY           SKY/WX    TMP DP  RH WIND       PRES   REMARKS
MEMPHIS INTL   CLOUDY    76  69  79 S15       30.00S
NWS MEMPHIS      N/A     74 N/A N/A MISG        N/A
JACKSON        MOCLDY    72  67  84 S8        30.04F
DYERSBURG      CLOUDY    73  57  56 SE8       30.02F
PARIS          CLEAR     66  66 100 SE9       30.07S
LEXINGTON      PTCLDY    68  66  94 S5        30.07F
$$

TNZ008-025-027-028-033-062-065-066-260500-
NORTH MIDDLE TENNESSEE

CITY           SKY/WX    TMP DP  RH WIND       PRES   REMARKS
NASHVILLE      MOCLDY    68  65  90 S3        30.12F
CLARKSVILLE    MOCLDY    67  66  97 SE7       30.09S
SMYRNA         MOCLDY    67  66  96 S3        30.13F
COOKEVILLE     MOCLDY    68  66  94 S6        30.17S
CROSSVILLE     CLOUDY    66  63  90 CALM      30.22S
$$

TNZ061-075-076-078-094-096-097-260500-
SOUTH MIDDLE TENNESSEE

CITY           SKY/WX    TMP DP  RH WIND       PRES   REMARKS
FAYETTEVILLE   CLEAR    N/A N/A N/A MISG      30.16S
TULLAHOMA      CLEAR     66  64  94 SE6       30.18S
WINCHESTER     CLEAR     66  64  94 SE8       30.18S
MCMINNVILLE    CLOUDY    68  68 100 VRB3      30.18R
COLUMBIA       CLEAR     66  66 100 CALM      30.11S
SHELBYVILLE    PTCLDY    68  66  94 SE8       30.16F
$$

TNZ017-018-042-046-047-260500-
NORTHEAST TENNESSEE

CITY           SKY/WX    TMP DP  RH WIND       PRES   REMARKS
TRI CITIES     CLOUDY    73  59  61 S5        30.22S
ELIZABETHTON   CLEAR     68  57  68 E3        30.24S
$$

TNZ012-013-036-069-073-074-260500-
CENTRAL EAST TENNESSEE

CITY           SKY/WX    TMP DP  RH WIND       PRES   REMARKS
KNOXVILLE      CLOUDY    68  63  84 W3        30.18F
OAK RIDGE      CLOUDY    69  66  90 VRB3      30.21S
GATLINBURG     MOCLDY    72  61  68 CALM      30.19F
MORRISTOWN     CLEAR     72  64  78 SW10      30.21F
$$

TNZ083-085-099-260500-
SOUTHEAST TENNESSEE

CITY           SKY/WX    TMP DP  RH WIND       PRES   REMARKS
CHATTANOOGA    CLOUDY    68  66  93 E3        30.19S
$$

SKY/WX REPORTED AS FAIR MEANS FEW OR NO CLOUDS BELOW
12 THOUSAND FEET.




USA.gov is the U.S. government's official web portal to all federal, state and local government web resources and services.